Penticton, British Columbia

9:20 AM PST on December 15, 2017 (GMT -0800)
Penticton

Weather History for CYYF - February, 2013

Change the Weather History Date:

Tuesday, February 5, 2013

  Actual Average Record
Temperature  
Mean Temperature 39 °F -  
Max Temperature 44 °F 42 °F 48 °F (2006)
Min Temperature 34 °F 28 °F 0 °F (2014)
Degree Days  
Heating Degree Days 26    
Moisture  
Dew Point 32 °F    
Average Humidity 78    
Maximum Humidity 87    
Minimum Humidity 63    
Precipitation  
Precipitation 0.00 in 0.03 in - ()
Sea Level Pressure  
Sea Level Pressure 29.85 in    
Wind  
Wind Speed 13 mph ()    
Max Wind Speed 21 mph    
Max Gust Speed 26 mph    
Visibility 15.0 miles    
Events Rain , Snow    
Averages and records for this station are not official NWS values.
T = Trace of Precipitation, MM = Missing Value Source: Averaged Metar Reports

Daily Weather History Graph

Daily Weather History Graph

Search for Another Location

Airport or City:

Trip Planner

Search our weather history database for the weather conditions in past years. The results will help you decide how hot, cold, wet, or windy it might be!

Date:

Astronomy

Feb. 05, 2013 Rise Set
Actual Time 7:23 AM PST 5:01 PM PST
Civil Twilight 6:49 AM PST 5:35 PM PST
Nautical Twilight 6:11 AM PST 6:13 PM PST
Astronomical Twilight 5:34 AM PST 6:51 PM PST
Moon 3:21 AM PST (2/5) 12:12 PM PST (2/5)
Length of Visible Light 10h 45m
Length of Day
9h 37m
Waning Crescent, 25% of the Moon is Illuminated
Feb 5
Waning Crescent
Feb 9
New
Feb 17
First Quarter
Feb 25
Full
Mar 4
Last Quarter

Hourly Weather History & Observations

Time (PST) Temp. Windchill Dew Point Humidity Pressure Visibility Wind Dir Wind Speed Gust Speed Precip Events Conditions
12:00 AM 35.6 °F 26.6 °F 32.0 °F 87% 29.98 in 15.0 mi SSE 13.8 mph - N/A   Overcast
1:00 AM 35.6 °F 26.6 °F 30.2 °F 81% 29.97 in 15.0 mi South 13.8 mph - N/A   Mostly Cloudy
1:09 AM 35.6 °F 26.6 °F 30.2 °F 81% 29.97 in 15.0 mi South 13.8 mph - N/A Snow Light Snow
1:40 AM 35.6 °F 27.1 °F 30.2 °F 81% 29.95 in 15.0 mi SSE 12.7 mph - N/A   Overcast
2:00 AM 35.6 °F 28.0 °F 32.0 °F 87% 29.94 in 15.0 mi SSE 10.4 mph - N/A   Overcast
3:00 AM 35.6 °F 28.0 °F 30.2 °F 81% 29.91 in 15.0 mi South 10.4 mph - N/A   Overcast
4:00 AM 35 °F - 31 °F 80% 29.89 in 15 mi SSE 12.7 mph - -   Partly Cloudy
4:00 AM 35.6 °F 26.6 °F 32.0 °F 87% 29.89 in 15.0 mi SSE 13.8 mph - N/A   Overcast
5:00 AM 35.6 °F 27.1 °F 32.0 °F 87% 29.85 in 15.0 mi SSE 12.7 mph 23.0 mph N/A   Overcast
6:00 AM 37.4 °F 27.2 °F 32.0 °F 81% 29.84 in 15.0 mi SSE 19.6 mph 26.5 mph N/A   Overcast
7:00 AM 39.2 °F 31.2 °F 32.0 °F 75% 29.85 in 15.0 mi South 13.8 mph - N/A   Mostly Cloudy
8:00 AM 37.4 °F 27.8 °F 32.0 °F 81% 29.85 in 15.0 mi South 17.3 mph - N/A   Mostly Cloudy
9:00 AM 39.2 °F 31.6 °F 32.0 °F 75% 29.83 in 15.0 mi SSE 12.7 mph 23.0 mph N/A   Mostly Cloudy
10:00 AM 41 °F - 33 °F 63% 29.83 in 15 mi SSE 19.6 mph - -   Mostly Cloudy
10:00 AM 41.0 °F 31.9 °F 32.0 °F 70% 29.83 in 15.0 mi SSE 19.6 mph 26.5 mph N/A   Mostly Cloudy
11:00 AM 41.0 °F 31.6 °F 32.0 °F 70% 29.81 in 15.0 mi SSE 20.7 mph - N/A   Mostly Cloudy
12:00 PM 42.8 °F 34.3 °F 33.8 °F 70% 29.80 in 15.0 mi SSE 19.6 mph - N/A   Mostly Cloudy
1:00 PM 42.8 °F 36.2 °F 33.8 °F 70% 29.79 in 15.0 mi SSE 12.7 mph 21.9 mph N/A   Mostly Cloudy
1:13 PM 41.0 °F 33.5 °F 33.8 °F 76% 29.80 in 15.0 mi SSE 13.8 mph 20.7 mph N/A Rain Light Rain Showers
2:00 PM 41.0 °F 34.3 °F 35.6 °F 81% 29.80 in 15.0 mi SSE 11.5 mph 21.9 mph N/A Rain Light Rain Showers
2:24 PM 41.0 °F 33.1 °F 33.8 °F 76% 29.81 in 15.0 mi South 15.0 mph - N/A   Mostly Cloudy
3:00 PM 41.0 °F 33.9 °F 33.8 °F 76% 29.80 in 15.0 mi South 12.7 mph 19.6 mph N/A   Mostly Cloudy
4:00 PM 40 °F - 33 °F 68% 29.82 in 15 mi SSE 11.5 mph - -   Partly Cloudy
4:00 PM 39.2 °F 32.0 °F 33.8 °F 81% 29.82 in 15.0 mi SSE 11.5 mph - N/A   Overcast
5:00 PM 39.2 °F 31.6 °F 32.0 °F 75% 29.82 in 15.0 mi South 12.7 mph - N/A   Overcast
6:00 PM 39.2 °F 30.8 °F 32.0 °F 75% 29.83 in 15.0 mi South 15.0 mph - N/A   Overcast
7:00 PM 37.4 °F 29.8 °F 32.0 °F 81% 29.84 in 15.0 mi South 11.5 mph - N/A   Overcast
8:00 PM 37.4 °F 28.9 °F 32.0 °F 81% 29.84 in 15.0 mi South 13.8 mph 20.7 mph N/A   Overcast
9:00 PM 37.4 °F 28.2 °F 32.0 °F 81% 29.83 in - South 16.1 mph 24.2 mph N/A   Overcast
10:00 PM 37 °F - 32 °F 75% 29.85 in 15 mi South 16.1 mph - -   Overcast
10:00 PM 37.4 °F 28.5 °F 32.0 °F 81% 29.85 in 15.0 mi South 15.0 mph 23.0 mph N/A   Overcast
11:00 PM 37.4 °F 28.2 °F 32.0 °F 81% 29.86 in 15.0 mi South 16.1 mph 23.0 mph N/A   Overcast